Weather observations for the past three days for
Cotulla, Cotulla-La Salle County Airport
Imperial (Metric)
Date Time (cdt) Wind (mph) Vis. (mi.) Weather Sky Cond. Temperature (ºF) Relative Humidity Wind Chill (°F) Heat Index (°F) Pressure Precipitation (in)
Air Dwpt 6 hour altimeter (in) sea level (mb) 1 hr 3 hr 6 hr
Max. Min.
23 06:53 N 6 10.00 Fair CLR 75 71.1 79 73.9 88% 75 29.98 1014.2
23 05:53 N 6 10.00 Fair CLR 73.9 71.1 91% 29.97 1013.9
23 04:53 N 3 10.00 Fair CLR 75 71.1 88% 75 29.96 1013.7
23 03:53 Calm 10.00 Fair CLR 75.9 71.1 85% 76 29.96 1013.6
23 02:53 Calm 10.00 Fair CLR 75.9 71.1 85% 76 29.97 1014.1
23 01:53 SE 3 10.00 Fair CLR 77 71.1 82% 79 29.99 1014.9
23 00:53 SE 6 10.00 Fair CLR 79 70 93.9 79 74% 82 30 1015.1
22 23:53 SE 8 10.00 NULL NULL 81 69.1 67% 84 30 1015.2
22 22:53 SE 8 10.00 Fair CLR 82.9 69.1 63% 87 29.99 1014.6
22 21:53 SE 12 10.00 Fair CLR 84.9 64.9 51% 87 29.96 1013.9
22 20:53 E 9 10.00 Fair CLR 89.1 66 47% 92 29.96 1013.5
22 19:53 E 12 10.00 Fair CLR 91.9 64.9 41% 94 29.94 1013.0
22 18:53 SE 14 10.00 A Few Clouds FEW065 93.9 64 96.1 90 37% 96 29.93 1012.8
22 17:53 E 10 10.00 Fair CLR 96.1 64 35% 98 29.94 1012.8
22 16:53 SE 13 G 18 10.00 A Few Clouds FEW060 96.1 64.9 36% 99 29.95 1013.3
22 15:53 SE 13 G 23 10.00 A Few Clouds FEW060 96.1 64 35% 98 29.96 1013.7
22 14:53 SE 12 G 20 10.00 A Few Clouds FEW055 93.9 64.9 38% 96 29.99 1014.6
22 13:53 E 10 10.00 A Few Clouds FEW055 91.9 66.9 44% 95 30.02 1015.6
22 12:53 E 8 10.00 A Few Clouds FEW047 91 71.1 91 75.9 52% 98 30.03 1015.9
22 11:53 Calm 10.00 Mostly Cloudy SCT032 SCT039 BKN055 87.1 71.1 59% 93 30.05 1016.6
22 10:53 E 8 10.00 Partly Cloudy SCT021 86 73 65% 93 30.05 1016.9
22 09:53 SE 8 10.00 Mostly Cloudy SCT014 BKN022 BKN030 82 73.9 77% 88 30.07 1017.4
22 08:53 E 7 10.00 Mostly Cloudy BKN007 81 75 82% 87 30.07 1017.5
22 07:53 NE 7 9.00 A Few Clouds FEW008 78.1 73.9 87% 81 30.06 1017.1
22 06:53 NE 5 7.00 Fair CLR 75.9 73.9 80.1 75.9 94% 75 30.05 1016.9
22 05:53 NE 5 10.00 Partly Cloudy SCT018 75.9 73.9 94% 75 30.05 1016.8
22 04:53 NE 5 10.00 A Few Clouds FEW017 75.9 73.9 94% 75 30.05 1016.7
22 03:53 NE 3 10.00 A Few Clouds FEW017 75.9 73.9 94% 75 30.05 1016.7
22 02:53 E 3 10.00 Fair CLR 77 73 88% 78 30.05 1016.8
22 01:53 E 3 10.00 Fair CLR 78.1 73 85% 81 30.06 1017.0
22 00:53 SE 6 10.00 Fair CLR 80.1 73 91 80.1 79% 84 30.05 1016.9
21 23:53 SE 7 10.00 Fair CLR 80.1 73 79% 84 30.06 1017.2
21 22:53 SE 8 10.00 Fair CLR 82 72 72% 87 30.05 1016.7
21 21:53 E 6 10.00 Mostly Cloudy BKN042 84 72 67% 90 30.03 1016.1
21 20:53 SE 7 10.00 Partly Cloudy SCT047 86 71.1 61% 92 30.01 1015.5
21 19:53 E 9 10.00 Fair CLR 89.1 71.1 55% 95 30 1014.9
21 18:53 E 13 10.00 Fair CLR 91 70 93.9 84.9 50% 97 30 1015.0
21 17:53 E 10 G 21 10.00 Fair CLR 90 68 48% 94 30 1015.2
21 16:53 E 15 G 24 10.00 Fair CLR 90 70 52% 95 30.01 1015.5
21 15:53 E 14 10.00 Mostly Cloudy FEW047 SCT080 BKN100 91.9 73 54% 101 30.03 1016.0
21 14:53 E 15 G 24 10.00 Fair CLR 91.9 70 49% 98 30.04 1016.3
21 13:53 SE 15 G 28 10.00 Mostly Cloudy FEW040 SCT050 BKN070 90 73 58% 98 30.05 1016.9
21 12:53 S 9 G 16 10.00 Light Rain FEW025 BKN032 BKN041 84 75 88 78.1 74% 92 30.08 1017.7
21 11:53 E 13 10.00 Mostly Cloudy BKN025 88 75 66% 98 30.08 1017.8
21 10:53 E 12 7.00 Light Rain SCT018 BKN026 BKN038 82.9 75 77% 90 30.09 1018.1
21 09:53 E 9 10.00 Overcast BKN014 OVC021 82.9 75 77% 90 30.09 1018.1
21 08:53 E 7 10.00 Overcast OVC012 81 75 82% 87 30.08 1017.8
21 07:53 E 7 10.00 Mostly Cloudy SCT008 BKN120 78.1 75 90% 81 30.06 1017.2
21 06:53 E 7 9.00 Mostly Cloudy BKN008 78.1 75 79 78.1 90% 81 30.05 1016.6
21 05:53 E 10 9.00 Partly Cloudy SCT006 SCT010 78.1 75.9 93% 81 30.04 1016.5
21 04:53 E 8 8.00 Light Rain BKN009 OVC013 79 75 88% 83 30.04 1016.3
21 03:53 E 9 10.00 Overcast BKN013 OVC019 79 75 88% 83 30.04 1016.4
21 02:53 E 10 9.00 Mostly Cloudy SCT009 BKN019 BKN024 78.1 75.9 93% 81 30.04 1016.5
21 01:53 E 9 10.00 A Few Clouds FEW024 79 75 88% 83 30.06 1017.0
21 00:53 E 8 10.00 A Few Clouds FEW024 79 75 82 79 88% 83 30.07 1017.5
20 23:53 E 7 10.00 Fair CLR 79 75 88% 83 30.06 1017.3
20 22:53 E 10 10.00 Fair CLR 79 75 88% 83 30.05 1016.7
20 21:53 E 8 10.00 A Few Clouds FEW032 80.1 75 85% 85 30.03 1016.1
20 20:53 E 12 10.00 Fair CLR 80.1 75 85% 85 30.01 1015.4
20 19:53 E 8 10.00 Partly Cloudy FEW045 SCT065 81 75.9 85% 87 29.99 1014.9
20 18:53 E 12 10.00 Fair CLR 81 75 84 79 82% 87 29.97 1014.0 0.39
20 17:53 E 8 10.00 Partly Cloudy SCT060 81 77 88% 88 29.97 1013.9 0.01
20 16:53 E 13 G 21 10.00 Thunderstorm FEW013 BKN050 OVC065 80.1 75.9 87% 85 29.97 1014.2 0.04
20 15:53 E 9 10.00 Thunderstorm in Vicinity Light Rain FEW020 BKN041 BKN055 81 75.9 85% 87 29.97 1014.0 0.1 0.34
20 14:53 E 9 10.00 A Few Clouds FEW035 81 77 88% 88 29.96 1013.6 0.12
20 13:53 SE 12 10.00 Mostly Cloudy SCT019 SCT032 BKN043 80.1 75.9 87% 85 29.97 1014.1 0.12
20 12:53 SE 16 9.00 Light Rain FEW026 BKN040 BKN065 80.1 75.9 89.1 79 87% 85 29.97 1014.3 0.15 0.15
20 11:53 E 22 G 33 10.00 Light Rain and Breezy SCT023 BKN031 BKN050 84.9 75 72% 93 29.97 1014.1
20 10:53 E 14 G 23 10.00 Overcast SCT018 BKN025 OVC029 84 75.9 77% 93 29.97 1014.2
20 09:53 E 14 10.00 Overcast FEW014 BKN020 OVC043 82 75.9 82% 89 29.98 1014.4
20 08:53 E 14 G 25 9.00 Overcast OVC017 80.1 75 85% 85 29.97 1014.0
20 07:53 E 12 G 22 10.00 Overcast BKN014 OVC021 79 75 88% 83 29.94 1013.1
Date Time (cdt) Wind (mph) Vis. (mi.) Weather Sky Cond. Air Dwpt Max. Min. Relative Humidity Wind Chill (°F) Heat Index (°F) altimeter (in) sea level (mb) 1 hr 3 hr 6 hr
6 hour
Temperature (ºF) Pressure Precipitation (in)